M I D A S
Marine Information and Data Acquisition System
Tripno 1403 of the Zeeleeuw from 2007-11-20 08:30:43 to 2007-11-20 17:03:29
Back to CruiseResearch ActivitiesStationsMapUnderway DataData graphs

EquipmentUnitsComment
TimeDGPSUTC
LatitudeDGPSDM.mWGS84
LongitudeDGPSDM.mWGS84
TemperatureSBE03/SBE38deg celciusITS90
ConductivitySBE21S/mITS90
SalinitySBE21 Practical Salinity Units
ChlorophylAChelsea fluorimeterg/lCalibrated in Aceton
Missing or incorrect values are displayed as -999
Sea surface data collected by the RV Zeeleeuw from 2007-11-20 08:29:58 to 2007-11-20 17:13:43
                                                                                    Next 1000 lines
Time Latitude Longitude Temperature Conductivity Salinity ChlorophylA
2007-11-20 08:30:08 51°13.598 2°56.095 -999 -999 -999 -999
2007-11-20 08:30:13 51°13.598 2°56.094 -999 -999 -999 -999
2007-11-20 08:30:18 51°13.599 2°56.092 -999 -999 -999 -999
2007-11-20 08:30:23 51°13.602 2°56.09 -999 -999 -999 -999
2007-11-20 08:30:28 51°13.603 2°56.087 -999 -999 -999 -999
2007-11-20 08:30:33 51°13.604 2°56.082 -999 -999 -999 -999
2007-11-20 08:30:38 51°13.606 2°56.077 -999 -999 -999 -999
2007-11-20 08:30:43 51°13.607 2°56.071 -999 -999 -999 -999
2007-11-20 08:30:48 51°13.609 2°56.064 -999 -999 -999 -999
2007-11-20 08:30:53 51°13.611 2°56.056 -999 -999 -999 -999
2007-11-20 08:30:58 51°13.613 2°56.048 -999 -999 -999 -999
2007-11-20 08:31:03 51°13.616 2°56.04 -999 -999 -999 -999
2007-11-20 08:31:08 51°13.618 2°56.031 -999 -999 -999 -999
2007-11-20 08:31:13 51°13.62 2°56.021 -999 -999 -999 -999
2007-11-20 08:31:18 51°13.623 2°56.011 -999 -999 -999 -999
2007-11-20 08:31:23 51°13.626 2°56.001 -999 -999 -999 -999
2007-11-20 08:31:28 51°13.629 2°55.991 -999 -999 -999 -999
2007-11-20 08:31:33 51°13.632 2°55.98 -999 -999 -999 -999
2007-11-20 08:31:38 51°13.636 2°55.969 -999 -999 -999 -999
2007-11-20 08:31:43 51°13.639 2°55.959 -999 -999 -999 -999
2007-11-20 08:31:48 51°13.642 2°55.948 -999 -999 -999 -999
2007-11-20 08:31:53 51°13.646 2°55.937 -999 -999 -999 -999
2007-11-20 08:31:58 51°13.649 2°55.926 -999 -999 -999 -999
2007-11-20 08:32:03 51°13.653 2°55.914 -999 -999 -999 -999
2007-11-20 08:32:08 51°13.656 2°55.904 -999 -999 -999 -999
2007-11-20 08:32:13 51°13.66 2°55.893 -999 -999 -999 -999
2007-11-20 08:32:18 51°13.664 2°55.882 -999 -999 -999 -999
2007-11-20 08:32:23 51°13.667 2°55.872 -999 -999 -999 -999
2007-11-20 08:32:28 51°13.67 2°55.862 -999 -999 -999 -999
2007-11-20 08:32:33 51°13.673 2°55.852 -999 -999 -999 -999
2007-11-20 08:32:38 51°13.677 2°55.843 -999 -999 -999 -999
2007-11-20 08:32:43 51°13.68 2°55.835 -999 -999 -999 -999
2007-11-20 08:32:48 51°13.682 2°55.826 -999 -999 -999 -999
2007-11-20 08:32:53 51°13.685 2°55.817 -999 -999 -999 -999
2007-11-20 08:32:58 51°13.687 2°55.809 -999 -999 -999 -999
2007-11-20 08:33:03 51°13.689 2°55.801 -999 -999 -999 -999
2007-11-20 08:33:08 51°13.691 2°55.793 -999 -999 -999 -999
2007-11-20 08:33:13 51°13.693 2°55.786 -999 -999 -999 -999
2007-11-20 08:33:18 51°13.695 2°55.779 -999 -999 -999 -999
2007-11-20 08:33:23 51°13.696 2°55.772 -999 -999 -999 -999
2007-11-20 08:33:28 51°13.697 2°55.765 -999 -999 -999 -999
2007-11-20 08:33:33 51°13.698 2°55.758 -999 -999 -999 -999
2007-11-20 08:33:38 51°13.699 2°55.751 -999 -999 -999 -999
2007-11-20 08:33:43 51°13.7 2°55.745 -999 -999 -999 -999
2007-11-20 08:33:48 51°13.7 2°55.74 -999 -999 -999 -999
2007-11-20 08:33:53 51°13.701 2°55.734 -999 -999 -999 -999
2007-11-20 08:33:58 51°13.701 2°55.73 -999 -999 -999 -999
2007-11-20 08:34:03 51°13.701 2°55.726 -999 -999 -999 -999
2007-11-20 08:34:08 51°13.702 2°55.723 -999 -999 -999 -999
2007-11-20 08:34:13 51°13.702 2°55.721 -999 -999 -999 -999
2007-11-20 08:34:18 51°13.702 2°55.719 -999 -999 -999 -999
2007-11-20 08:34:23 51°13.703 2°55.717 -999 -999 -999 -999
2007-11-20 08:34:28 51°13.703 2°55.716 -999 -999 -999 -999
2007-11-20 08:34:33 51°13.704 2°55.716 -999 -999 -999 -999
2007-11-20 08:34:38 51°13.704 2°55.716 -999 -999 -999 -999
2007-11-20 08:34:43 51°13.705 2°55.716 -999 -999 -999 -999
2007-11-20 08:34:48 51°13.707 2°55.717 -999 -999 -999 -999
2007-11-20 08:34:53 51°13.708 2°55.718 -999 -999 -999 -999
2007-11-20 08:34:58 51°13.71 2°55.719 -999 -999 -999 -999
2007-11-20 08:35:03 51°13.711 2°55.72 -999 -999 -999 -999
2007-11-20 08:35:08 51°13.714 2°55.721 -999 -999 -999 -999
2007-11-20 08:35:13 51°13.716 2°55.722 -999 -999 -999 -999
2007-11-20 08:35:18 51°13.719 2°55.723 -999 -999 -999 -999
2007-11-20 08:35:23 51°13.722 2°55.724 -999 -999 -999 -999
2007-11-20 08:35:28 51°13.725 2°55.724 -999 -999 -999 -999
2007-11-20 08:35:33 51°13.728 2°55.723 -999 -999 -999 -999
2007-11-20 08:35:38 51°13.732 2°55.722 -999 -999 -999 -999
2007-11-20 08:35:43 51°13.735 2°55.721 -999 -999 -999 -999
2007-11-20 08:35:48 51°13.74 2°55.719 -999 -999 -999 -999
2007-11-20 08:35:53 51°13.744 2°55.717 -999 -999 -999 -999
2007-11-20 08:35:58 51°13.748 2°55.714 -999 -999 -999 -999
2007-11-20 08:36:03 51°13.753 2°55.71 -999 -999 -999 -999
2007-11-20 08:36:08 51°13.758 2°55.705 -999 -999 -999 -999
2007-11-20 08:36:13 51°13.765 2°55.699 -999 -999 -999 -999
2007-11-20 08:36:18 51°13.771 2°55.693 -999 -999 -999 -999
2007-11-20 08:36:23 51°13.778 2°55.687 -999 -999 -999 -999
2007-11-20 08:36:28 51°13.786 2°55.68 -999 -999 -999 -999
2007-11-20 08:36:33 51°13.794 2°55.673 -999 -999 -999 -999
2007-11-20 08:36:38 51°13.803 2°55.666 -999 -999 -999 -999
2007-11-20 08:36:43 51°13.811 2°55.658 -999 -999 -999 -999
2007-11-20 08:36:48 51°13.82 2°55.65 -999 -999 -999 -999
2007-11-20 08:36:53 51°13.83 2°55.642 -999 -999 -999 -999
2007-11-20 08:36:58 51°13.839 2°55.634 -999 -999 -999 -999
2007-11-20 08:37:03 51°13.849 2°55.625 -999 -999 -999 -999
2007-11-20 08:37:08 51°13.858 2°55.616 -999 -999 -999 -999
2007-11-20 08:37:13 51°13.868 2°55.608 -999 -999 -999 -999
2007-11-20 08:37:18 51°13.878 2°55.599 -999 -999 -999 -999
2007-11-20 08:37:23 51°13.889 2°55.59 -999 -999 -999 -999
2007-11-20 08:37:28 51°13.899 2°55.581 -999 -999 -999 -999
2007-11-20 08:37:33 51°13.91 2°55.573 -999 -999 -999 -999
2007-11-20 08:37:38 51°13.92 2°55.564 -999 -999 -999 -999
2007-11-20 08:37:43 51°13.931 2°55.556 -999 -999 -999 -999
2007-11-20 08:37:48 51°13.941 2°55.547 -999 -999 -999 -999
2007-11-20 08:37:53 51°13.951 2°55.539 -999 -999 -999 -999
2007-11-20 08:37:58 51°13.962 2°55.531 -999 -999 -999 -999
2007-11-20 08:38:03 51°13.971 2°55.523 -999 -999 -999 -999
2007-11-20 08:38:08 51°13.981 2°55.515 -999 -999 -999 -999
2007-11-20 08:38:13 51°13.991 2°55.507 -999 -999 -999 -999
2007-11-20 08:38:18 51°14 2°55.5 -999 -999 -999 -999
2007-11-20 08:38:23 51°14.01 2°55.492 -999 -999 -999 -999
2007-11-20 08:38:28 51°14.019 2°55.485 -999 -999 -999 -999
2007-11-20 08:38:33 51°14.028 2°55.478 -999 -999 -999 -999
2007-11-20 08:38:38 51°14.038 2°55.471 -999 -999 -999 -999
2007-11-20 08:38:43 51°14.047 2°55.464 -999 -999 -999 -999
2007-11-20 08:38:48 51°14.056 2°55.457 -999 -999 -999 -999
2007-11-20 08:38:53 51°14.065 2°55.449 -999 -999 -999 -999
2007-11-20 08:38:58 51°14.074 2°55.442 -999 -999 -999 -999
2007-11-20 08:39:03 51°14.084 2°55.434 -999 -999 -999 -999
2007-11-20 08:39:08 51°14.094 2°55.426 -999 -999 -999 -999
2007-11-20 08:39:13 51°14.104 2°55.418 -999 -999 -999 -999
2007-11-20 08:39:18 51°14.114 2°55.409 -999 -999 -999 -999
2007-11-20 08:39:23 51°14.124 2°55.4 -999 -999 -999 -999
2007-11-20 08:39:28 51°14.135 2°55.391 -999 -999 -999 -999
2007-11-20 08:39:33 51°14.145 2°55.381 -999 -999 -999 -999
2007-11-20 08:39:38 51°14.156 2°55.372 -999 -999 -999 -999
2007-11-20 08:39:43 51°14.167 2°55.361 -999 -999 -999 -999
2007-11-20 08:39:48 51°14.177 2°55.351 -999 -999 -999 -999
2007-11-20 08:39:53 51°14.187 2°55.339 -999 -999 -999 -999
2007-11-20 08:39:58 51°14.198 2°55.328 -999 -999 -999 -999
2007-11-20 08:40:03 51°14.208 2°55.315 -999 -999 -999 -999
2007-11-20 08:40:08 51°14.219 2°55.302 -999 -999 -999 -999
2007-11-20 08:40:13 51°14.23 2°55.289 -999 -999 -999 -999
2007-11-20 08:40:18 51°14.241 2°55.274 -999 -999 -999 -999
2007-11-20 08:40:23 51°14.251 2°55.259 -999 -999 -999 -999
2007-11-20 08:40:28 51°14.262 2°55.243 -999 -999 -999 -999
2007-11-20 08:40:33 51°14.272 2°55.227 -999 -999 -999 -999
2007-11-20 08:40:38 51°14.282 2°55.209 -999 -999 -999 -999
2007-11-20 08:40:43 51°14.291 2°55.192 -999 -999 -999 -999
2007-11-20 08:40:48 51°14.301 2°55.174 -999 -999 -999 -999
2007-11-20 08:40:53 51°14.31 2°55.155 -999 -999 -999 -999
2007-11-20 08:40:58 51°14.32 2°55.136 -999 -999 -999 -999
2007-11-20 08:41:03 51°14.329 2°55.117 -999 -999 -999 -999
2007-11-20 08:41:08 51°14.339 2°55.097 -999 -999 -999 -999
2007-11-20 08:41:13 51°14.347 2°55.076 -999 -999 -999 -999
2007-11-20 08:41:18 51°14.356 2°55.054 -999 -999 -999 -999
2007-11-20 08:41:23 51°14.365 2°55.032 -999 -999 -999 -999
2007-11-20 08:41:28 51°14.373 2°55.01 -999 -999 -999 -999
2007-11-20 08:41:33 51°14.383 2°54.988 -999 -999 -999 -999
2007-11-20 08:41:38 51°14.394 2°54.966 -999 -999 -999 -999
2007-11-20 08:41:43 51°14.404 2°54.945 -999 -999 -999 -999
2007-11-20 08:41:48 51°14.416 2°54.924 -999 -999 -999 -999
2007-11-20 08:41:53 51°14.428 2°54.904 -999 -999 -999 -999
2007-11-20 08:41:58 51°14.441 2°54.885 -999 -999 -999 -999
2007-11-20 08:42:03 51°14.453 2°54.867 -999 -999 -999 -999
2007-11-20 08:42:08 51°14.466 2°54.849 -999 -999 -999 -999
2007-11-20 08:42:13 51°14.48 2°54.831 -999 -999 -999 -999
2007-11-20 08:42:18 51°14.493 2°54.813 -999 -999 -999 -999
2007-11-20 08:42:23 51°14.506 2°54.796 -999 -999 -999 -999
2007-11-20 08:42:28 51°14.519 2°54.779 -999 -999 -999 -999
2007-11-20 08:42:33 51°14.533 2°54.762 -999 -999 -999 -999
2007-11-20 08:42:38 51°14.546 2°54.745 -999 -999 -999 -999
2007-11-20 08:42:43 51°14.559 2°54.728 -999 -999 -999 -999
2007-11-20 08:42:48 51°14.574 2°54.712 -999 -999 -999 -999
2007-11-20 08:42:53 51°14.588 2°54.697 -999 -999 -999 -999
2007-11-20 08:42:58 51°14.602 2°54.682 -999 -999 -999 -999
2007-11-20 08:43:03 51°14.617 2°54.668 -999 -999 -999 -999
2007-11-20 08:43:08 51°14.632 2°54.654 -999 -999 -999 -999
2007-11-20 08:43:13 51°14.647 2°54.64 -999 -999 -999 -999
2007-11-20 08:43:18 51°14.661 2°54.625 -999 -999 -999 -999
2007-11-20 08:43:23 51°14.675 2°54.61 -999 -999 -999 -999
2007-11-20 08:43:28 51°14.689 2°54.593 -999 -999 -999 -999
2007-11-20 08:43:33 51°14.701 2°54.575 -999 -999 -999 -999
2007-11-20 08:43:38 51°14.713 2°54.556 -999 -999 -999 -999
2007-11-20 08:43:43 51°14.724 2°54.536 -999 -999 -999 -999
2007-11-20 08:43:48 51°14.735 2°54.515 -999 -999 -999 -999
2007-11-20 08:43:53 51°14.744 2°54.493 -999 -999 -999 -999
2007-11-20 08:43:58 51°14.754 2°54.471 -999 -999 -999 -999
2007-11-20 08:44:03 51°14.763 2°54.45 -999 -999 -999 -999
2007-11-20 08:44:08 51°14.774 2°54.43 -999 -999 -999 -999
2007-11-20 08:44:13 51°14.787 2°54.412 -999 -999 -999 -999
2007-11-20 08:44:18 51°14.8 2°54.395 -999 -999 -999 -999
2007-11-20 08:44:23 51°14.812 2°54.377 -999 -999 -999 -999
2007-11-20 08:44:28 51°14.825 2°54.359 -999 -999 -999 -999
2007-11-20 08:44:33 51°14.837 2°54.34 -999 -999 -999 -999
2007-11-20 08:44:38 51°14.85 2°54.322 -999 -999 -999 -999
2007-11-20 08:44:43 51°14.862 2°54.303 -999 -999 -999 -999
2007-11-20 08:44:48 51°14.874 2°54.285 -999 -999 -999 -999
2007-11-20 08:44:53 51°14.887 2°54.267 -999 -999 -999 -999
2007-11-20 08:44:58 51°14.9 2°54.249 -999 -999 -999 -999
2007-11-20 08:45:03 51°14.914 2°54.232 -999 -999 -999 -999
2007-11-20 08:45:08 51°14.928 2°54.217 -999 -999 -999 -999
2007-11-20 08:45:13 51°14.943 2°54.202 -999 -999 -999 -999
2007-11-20 08:45:18 51°14.958 2°54.189 -999 -999 -999 -999
2007-11-20 08:45:23 51°14.973 2°54.175 -999 -999 -999 -999
2007-11-20 08:45:28 51°14.988 2°54.161 -999 -999 -999 -999
2007-11-20 08:45:33 51°15.003 2°54.147 -999 -999 -999 -999
2007-11-20 08:45:38 51°15.018 2°54.133 -999 -999 -999 -999
2007-11-20 08:45:43 51°15.033 2°54.119 -999 -999 -999 -999
2007-11-20 08:45:48 51°15.048 2°54.105 -999 -999 -999 -999
2007-11-20 08:45:53 51°15.063 2°54.091 -999 -999 -999 -999
2007-11-20 08:45:58 51°15.078 2°54.076 -999 -999 -999 -999
2007-11-20 08:46:03 51°15.093 2°54.061 -999 -999 -999 -999
2007-11-20 08:46:08 51°15.107 2°54.046 -999 -999 -999 -999
2007-11-20 08:46:13 51°15.122 2°54.031 -999 -999 -999 -999
2007-11-20 08:46:18 51°15.137 2°54.017 -999 -999 -999 -999
2007-11-20 08:46:23 51°15.152 2°54.004 -999 -999 -999 -999
2007-11-20 08:46:28 51°15.168 2°53.991 -999 -999 -999 -999
2007-11-20 08:46:33 51°15.184 2°53.979 -999 -999 -999 -999
2007-11-20 08:46:38 51°15.2 2°53.968 -999 -999 -999 -999
2007-11-20 08:46:43 51°15.216 2°53.957 -999 -999 -999 -999
2007-11-20 08:46:48 51°15.233 2°53.946 -999 -999 -999 -999
2007-11-20 08:46:53 51°15.249 2°53.936 -999 -999 -999 -999
2007-11-20 08:46:58 51°15.265 2°53.925 -999 -999 -999 -999
2007-11-20 08:47:03 51°15.282 2°53.916 -999 -999 -999 -999
2007-11-20 08:47:08 51°15.299 2°53.905 -999 -999 -999 -999
2007-11-20 08:47:13 51°15.315 2°53.895 -999 -999 -999 -999
2007-11-20 08:47:18 51°15.332 2°53.885 -999 -999 -999 -999
2007-11-20 08:47:23 51°15.348 2°53.874 -999 -999 -999 -999
2007-11-20 08:47:28 51°15.364 2°53.863 -999 -999 -999 -999
2007-11-20 08:47:33 51°15.38 2°53.851 -999 -999 -999 -999
2007-11-20 08:47:38 51°15.396 2°53.838 -999 -999 -999 -999
2007-11-20 08:47:43 51°15.411 2°53.825 -999 -999 -999 -999
2007-11-20 08:47:48 51°15.426 2°53.811 -999 -999 -999 -999
2007-11-20 08:47:53 51°15.441 2°53.797 -999 -999 -999 -999
2007-11-20 08:47:58 51°15.456 2°53.783 -999 -999 -999 -999
2007-11-20 08:48:03 51°15.471 2°53.769 -999 -999 -999 -999
2007-11-20 08:48:08 51°15.486 2°53.755 -999 -999 -999 -999
2007-11-20 08:48:13 51°15.501 2°53.741 -999 -999 -999 -999
2007-11-20 08:48:18 51°15.517 2°53.727 -999 -999 -999 -999
2007-11-20 08:48:23 51°15.532 2°53.714 -999 -999 -999 -999
2007-11-20 08:48:28 51°15.548 2°53.701 -999 -999 -999 -999
2007-11-20 08:48:33 51°15.564 2°53.688 -999 -999 -999 -999
2007-11-20 08:48:38 51°15.579 2°53.676 -999 -999 -999 -999
2007-11-20 08:48:43 51°15.595 2°53.664 -999 -999 -999 -999
2007-11-20 08:48:48 51°15.611 2°53.651 -999 -999 -999 -999
2007-11-20 08:48:53 51°15.627 2°53.639 -999 -999 -999 -999
2007-11-20 08:48:58 51°15.642 2°53.627 -999 -999 -999 -999
2007-11-20 08:49:03 51°15.658 2°53.614 -999 -999 -999 -999
2007-11-20 08:49:08 51°15.673 2°53.601 -999 -999 -999 -999
2007-11-20 08:49:13 51°15.689 2°53.588 -999 -999 -999 -999
2007-11-20 08:49:18 51°15.704 2°53.574 -999 -999 -999 -999
2007-11-20 08:49:23 51°15.719 2°53.561 -999 -999 -999 -999
2007-11-20 08:49:28 51°15.735 2°53.547 -999 -999 -999 -999
2007-11-20 08:49:33 51°15.75 2°53.534 -999 -999 -999 -999
2007-11-20 08:49:38 51°15.765 2°53.52 -999 -999 -999 -999
2007-11-20 08:49:43 51°15.781 2°53.507 -999 -999 -999 -999
2007-11-20 08:49:48 51°15.796 2°53.494 -999 -999 -999 -999
2007-11-20 08:49:53 51°15.812 2°53.481 -999 -999 -999 -999
2007-11-20 08:49:58 51°15.828 2°53.469 -999 -999 -999 -999
2007-11-20 08:50:03 51°15.843 2°53.456 -999 -999 -999 -999
2007-11-20 08:50:08 51°15.859 2°53.444 -999 -999 -999 -999
2007-11-20 08:50:13 51°15.875 2°53.432 -999 -999 -999 -999
2007-11-20 08:50:18 51°15.891 2°53.42 -999 -999 -999 -999
2007-11-20 08:50:23 51°15.906 2°53.407 -999 -999 -999 -999
2007-11-20 08:50:28 51°15.922 2°53.395 -999 -999 -999 -999
2007-11-20 08:50:33 51°15.938 2°53.382 -999 -999 -999 -999
2007-11-20 08:50:38 51°15.953 2°53.369 -999 -999 -999 -999
2007-11-20 08:50:43 51°15.969 2°53.357 -999 -999 -999 -999
2007-11-20 08:50:48 51°15.985 2°53.344 -999 -999 -999 -999
2007-11-20 08:50:53 51°16 2°53.331 -999 -999 -999 -999
2007-11-20 08:50:58 51°16.016 2°53.319 -999 -999 -999 -999
2007-11-20 08:51:03 51°16.032 2°53.306 -999 -999 -999 -999
2007-11-20 08:51:08 51°16.047 2°53.293 -999 -999 -999 -999
2007-11-20 08:51:13 51°16.063 2°53.281 -999 -999 -999 -999
2007-11-20 08:51:18 51°16.079 2°53.268 -999 -999 -999 -999
2007-11-20 08:51:23 51°16.095 2°53.256 -999 -999 -999 -999
2007-11-20 08:51:28 51°16.111 2°53.244 -999 -999 -999 -999
2007-11-20 08:51:33 51°16.126 2°53.232 -999 -999 -999 -999
2007-11-20 08:51:38 51°16.143 2°53.219 -999 -999 -999 -999
2007-11-20 08:51:43 51°16.158 2°53.207 -999 -999 -999 -999
2007-11-20 08:51:48 51°16.174 2°53.195 -999 -999 -999 -999
2007-11-20 08:51:53 51°16.19 2°53.182 -999 -999 -999 -999
2007-11-20 08:51:58 51°16.206 2°53.17 -999 -999 -999 -999
2007-11-20 08:52:03 51°16.221 2°53.156 -999 -999 -999 -999
2007-11-20 08:52:08 51°16.237 2°53.143 -999 -999 -999 -999
2007-11-20 08:52:13 51°16.252 2°53.13 -999 -999 -999 -999
2007-11-20 08:52:18 51°16.268 2°53.117 -999 -999 -999 -999
2007-11-20 08:52:23 51°16.283 2°53.103 -999 -999 -999 -999
2007-11-20 08:52:28 51°16.299 2°53.091 -999 -999 -999 -999
2007-11-20 08:52:33 51°16.314 2°53.078 -999 -999 -999 -999
2007-11-20 08:52:38 51°16.33 2°53.066 -999 -999 -999 -999
2007-11-20 08:52:43 51°16.346 2°53.054 -999 -999 -999 -999
2007-11-20 08:52:48 51°16.363 2°53.043 -999 -999 -999 -999
2007-11-20 08:52:53 51°16.379 2°53.032 -999 -999 -999 -999
2007-11-20 08:52:58 51°16.396 2°53.021 -999 -999 -999 -999
2007-11-20 08:53:03 51°16.412 2°53.011 -999 -999 -999 -999
2007-11-20 08:53:08 51°16.429 2°53 -999 -999 -999 -999
2007-11-20 08:53:13 51°16.446 2°52.99 -999 -999 -999 -999
2007-11-20 08:53:18 51°16.463 2°52.98 -999 -999 -999 -999
2007-11-20 08:53:23 51°16.479 2°52.97 -999 -999 -999 -999
2007-11-20 08:53:28 51°16.496 2°52.96 -999 -999 -999 -999
2007-11-20 08:53:33 51°16.513 2°52.95 -999 -999 -999 -999
2007-11-20 08:53:38 51°16.53 2°52.94 -999 -999 -999 -999
2007-11-20 08:53:43 51°16.546 2°52.929 -999 -999 -999 -999
2007-11-20 08:53:48 51°16.563 2°52.918 -999 -999 -999 -999
2007-11-20 08:53:53 51°16.579 2°52.907 -999 -999 -999 -999
2007-11-20 08:53:58 51°16.595 2°52.895 -999 -999 -999 -999
2007-11-20 08:54:03 51°16.611 2°52.883 -999 -999 -999 -999
2007-11-20 08:54:08 51°16.627 2°52.871 -999 -999 -999 -999
2007-11-20 08:54:13 51°16.643 2°52.859 -999 -999 -999 -999
2007-11-20 08:54:18 51°16.659 2°52.847 -999 -999 -999 -999
2007-11-20 08:54:23 51°16.675 2°52.834 -999 -999 -999 -999
2007-11-20 08:54:28 51°16.691 2°52.822 -999 -999 -999 -999
2007-11-20 08:54:33 51°16.707 2°52.81 -999 -999 -999 -999
2007-11-20 08:54:38 51°16.724 2°52.799 -999 -999 -999 -999
2007-11-20 08:54:43 51°16.74 2°52.788 -999 -999 -999 -999
2007-11-20 08:54:48 51°16.755 2°52.776 -999 -999 -999 -999
2007-11-20 08:54:53 51°16.772 2°52.765 -999 -999 -999 -999
2007-11-20 08:54:58 51°16.788 2°52.754 -999 -999 -999 -999
2007-11-20 08:55:03 51°16.804 2°52.743 -999 -999 -999 -999
2007-11-20 08:55:08 51°16.82 2°52.731 -999 -999 -999 -999
2007-11-20 08:55:13 51°16.836 2°52.72 -999 -999 -999 -999
2007-11-20 08:55:18 51°16.852 2°52.708 -999 -999 -999 -999
2007-11-20 08:55:23 51°16.868 2°52.696 -999 -999 -999 -999
2007-11-20 08:55:28 51°16.884 2°52.685 -999 -999 -999 -999
2007-11-20 08:55:33 51°16.9 2°52.673 -999 -999 -999 -999
2007-11-20 08:55:38 51°16.916 2°52.661 -999 -999 -999 -999
2007-11-20 08:55:43 51°16.932 2°52.648 -999 -999 -999 -999
2007-11-20 08:55:48 51°16.948 2°52.636 -999 -999 -999 -999
2007-11-20 08:55:53 51°16.964 2°52.624 -999 -999 -999 -999
2007-11-20 08:55:58 51°16.98 2°52.612 -999 -999 -999 -999
2007-11-20 08:56:03 51°16.996 2°52.599 -999 -999 -999 -999
2007-11-20 08:56:08 51°17.012 2°52.588 -999 -999 -999 -999
2007-11-20 08:56:13 51°17.028 2°52.575 -999 -999 -999 -999
2007-11-20 08:56:18 51°17.045 2°52.564 -999 -999 -999 -999
2007-11-20 08:56:23 51°17.061 2°52.552 -999 -999 -999 -999
2007-11-20 08:56:28 51°17.077 2°52.54 -999 -999 -999 -999
2007-11-20 08:56:33 51°17.093 2°52.528 -999 -999 -999 -999
2007-11-20 08:56:38 51°17.109 2°52.516 -999 -999 -999 -999
2007-11-20 08:56:43 51°17.125 2°52.504 -999 -999 -999 -999
2007-11-20 08:56:48 51°17.141 2°52.492 -999 -999 -999 -999
2007-11-20 08:56:53 51°17.158 2°52.48 -999 -999 -999 -999
2007-11-20 08:56:58 51°17.174 2°52.469 -999 -999 -999 -999
2007-11-20 08:57:03 51°17.19 2°52.457 -999 -999 -999 -999
2007-11-20 08:57:08 51°17.207 2°52.445 -999 -999 -999 -999
2007-11-20 08:57:13 51°17.223 2°52.433 -999 -999 -999 -999
2007-11-20 08:57:18 51°17.239 2°52.421 -999 -999 -999 -999
2007-11-20 08:57:23 51°17.255 2°52.409 -999 -999 -999 -999
2007-11-20 08:57:28 51°17.271 2°52.397 -999 -999 -999 -999
2007-11-20 08:57:33 51°17.287 2°52.384 -999 -999 -999 -999
2007-11-20 08:57:38 51°17.303 2°52.371 -999 -999 -999 -999
2007-11-20 08:57:43 51°17.319 2°52.358 -999 -999 -999 -999
2007-11-20 08:57:48 51°17.334 2°52.345 -999 -999 -999 -999
2007-11-20 08:57:53 51°17.35 2°52.332 -999 -999 -999 -999
2007-11-20 08:57:58 51°17.365 2°52.319 -999 -999 -999 -999
2007-11-20 08:58:03 51°17.381 2°52.306 -999 -999 -999 -999
2007-11-20 08:58:08 51°17.397 2°52.293 -999 -999 -999 -999
2007-11-20 08:58:13 51°17.413 2°52.281 -999 -999 -999 -999
2007-11-20 08:58:18 51°17.429 2°52.269 -999 -999 -999 -999
2007-11-20 08:58:23 51°17.446 2°52.258 -999 -999 -999 -999
2007-11-20 08:58:28 51°17.462 2°52.246 -999 -999 -999 -999
2007-11-20 08:58:33 51°17.478 2°52.234 -999 -999 -999 -999
2007-11-20 08:58:38 51°17.494 2°52.222 -999 -999 -999 -999
2007-11-20 08:58:43 51°17.51 2°52.21 -999 -999 -999 -999
2007-11-20 08:58:48 51°17.526 2°52.198 -999 -999 -999 -999
2007-11-20 08:58:53 51°17.543 2°52.186 -999 -999 -999 -999
2007-11-20 08:58:58 51°17.559 2°52.174 -999 -999 -999 -999
2007-11-20 08:59:03 51°17.575 2°52.163 -999 -999 -999 -999
2007-11-20 08:59:08 51°17.592 2°52.151 -999 -999 -999 -999
2007-11-20 08:59:13 51°17.608 2°52.14 -999 -999 -999 -999
2007-11-20 08:59:18 51°17.624 2°52.128 -999 -999 -999 -999
2007-11-20 08:59:23 51°17.64 2°52.116 -999 -999 -999 -999
2007-11-20 08:59:28 51°17.657 2°52.105 -999 -999 -999 -999
2007-11-20 08:59:33 51°17.673 2°52.094 -999 -999 -999 -999
2007-11-20 08:59:38 51°17.69 2°52.082 -999 -999 -999 -999
2007-11-20 08:59:43 51°17.706 2°52.071 -999 -999 -999 -999
2007-11-20 08:59:48 51°17.722 2°52.059 -999 -999 -999 -999
2007-11-20 08:59:53 51°17.739 2°52.047 -999 -999 -999 -999
2007-11-20 08:59:58 51°17.755 2°52.035 -999 -999 -999 -999
2007-11-20 09:00:03 51°17.771 2°52.023 -999 -999 -999 -999
2007-11-20 09:00:08 51°17.787 2°52.011 -999 -999 -999 -999
2007-11-20 09:00:13 51°17.803 2°51.999 -999 -999 -999 -999
2007-11-20 09:00:18 51°17.819 2°51.987 -999 -999 -999 -999
2007-11-20 09:00:23 51°17.835 2°51.974 -999 -999 -999 -999
2007-11-20 09:00:28 51°17.851 2°51.961 -999 -999 -999 -999
2007-11-20 09:00:33 51°17.867 2°51.948 -999 -999 -999 -999
2007-11-20 09:00:38 51°17.883 2°51.935 -999 -999 -999 -999
2007-11-20 09:00:43 51°17.898 2°51.921 -999 -999 -999 -999
2007-11-20 09:00:48 51°17.915 2°51.909 -999 -999 -999 -999
2007-11-20 09:00:53 51°17.931 2°51.897 -999 -999 -999 -999
2007-11-20 09:00:58 51°17.947 2°51.885 -999 -999 -999 -999
2007-11-20 09:01:03 51°17.963 2°51.873 -999 -999 -999 -999
2007-11-20 09:01:08 51°17.979 2°51.862 -999 -999 -999 -999
2007-11-20 09:01:13 51°17.996 2°51.85 -999 -999 -999 -999
2007-11-20 09:01:18 51°18.012 2°51.838 -999 -999 -999 -999
2007-11-20 09:01:23 51°18.028 2°51.827 -999 -999 -999 -999
2007-11-20 09:01:28 51°18.045 2°51.815 -999 -999 -999 -999
2007-11-20 09:01:33 51°18.061 2°51.803 -999 -999 -999 -999
2007-11-20 09:01:38 51°18.078 2°51.792 -999 -999 -999 -999
2007-11-20 09:01:43 51°18.094 2°51.78 -999 -999 -999 -999
2007-11-20 09:01:48 51°18.11 2°51.768 -999 -999 -999 -999
2007-11-20 09:01:53 51°18.127 2°51.756 -999 -999 -999 -999
2007-11-20 09:01:58 51°18.143 2°51.744 -999 -999 -999 -999
2007-11-20 09:02:03 51°18.159 2°51.732 -999 -999 -999 -999
2007-11-20 09:02:08 51°18.176 2°51.72 -999 -999 -999 -999
2007-11-20 09:02:13 51°18.192 2°51.708 -999 -999 -999 -999
2007-11-20 09:02:18 51°18.208 2°51.696 -999 -999 -999 -999
2007-11-20 09:02:23 51°18.224 2°51.684 -999 -999 -999 -999
2007-11-20 09:02:28 51°18.24 2°51.671 -999 -999 -999 -999
2007-11-20 09:02:33 51°18.256 2°51.659 -999 -999 -999 -999
2007-11-20 09:02:38 51°18.273 2°51.647 -999 -999 -999 -999
2007-11-20 09:02:43 51°18.289 2°51.635 -999 -999 -999 -999
2007-11-20 09:02:48 51°18.305 2°51.623 -999 -999 -999 -999
2007-11-20 09:02:53 51°18.322 2°51.611 -999 -999 -999 -999
2007-11-20 09:02:58 51°18.338 2°51.599 -999 -999 -999 -999
2007-11-20 09:03:03 51°18.355 2°51.587 -999 -999 -999 -999
2007-11-20 09:03:08 51°18.371 2°51.575 -999 -999 -999 -999
2007-11-20 09:03:13 51°18.387 2°51.563 -999 -999 -999 -999
2007-11-20 09:03:18 51°18.404 2°51.551 -999 -999 -999 -999
2007-11-20 09:03:23 51°18.42 2°51.539 -999 -999 -999 -999
2007-11-20 09:03:28 51°18.436 2°51.527 -999 -999 -999 -999
2007-11-20 09:03:33 51°18.453 2°51.516 -999 -999 -999 -999
2007-11-20 09:03:38 51°18.47 2°51.504 -999 -999 -999 -999
2007-11-20 09:03:43 51°18.486 2°51.492 -999 -999 -999 -999
2007-11-20 09:03:48 51°18.503 2°51.48 -999 -999 -999 -999
2007-11-20 09:03:53 51°18.519 2°51.468 -999 -999 -999 -999
2007-11-20 09:03:58 51°18.536 2°51.457 -999 -999 -999 -999
2007-11-20 09:04:03 51°18.552 2°51.445 -999 -999 -999 -999
2007-11-20 09:04:08 51°18.568 2°51.433 -999 -999 -999 -999
2007-11-20 09:04:13 51°18.585 2°51.421 -999 -999 -999 -999
2007-11-20 09:04:18 51°18.601 2°51.409 -999 -999 -999 -999
2007-11-20 09:04:23 51°18.618 2°51.397 -999 -999 -999 -999
2007-11-20 09:04:28 51°18.634 2°51.386 -999 -999 -999 -999
2007-11-20 09:04:33 51°18.651 2°51.374 -999 -999 -999 -999
2007-11-20 09:04:38 51°18.667 2°51.363 -999 -999 -999 -999
2007-11-20 09:04:43 51°18.684 2°51.351 -999 -999 -999 -999
2007-11-20 09:04:48 51°18.7 2°51.34 -999 -999 -999 -999
2007-11-20 09:04:53 51°18.717 2°51.328 -999 -999 -999 -999
2007-11-20 09:04:58 51°18.733 2°51.316 -999 -999 -999 -999
2007-11-20 09:05:03 51°18.75 2°51.304 -999 -999 -999 -999
2007-11-20 09:05:08 51°18.766 2°51.292 -999 -999 -999 -999
2007-11-20 09:05:13 51°18.782 2°51.281 -999 -999 -999 -999
2007-11-20 09:05:18 51°18.799 2°51.269 -999 -999 -999 -999
2007-11-20 09:05:23 51°18.815 2°51.257 -999 -999 -999 -999
2007-11-20 09:05:28 51°18.832 2°51.246 -999 -999 -999 -999
2007-11-20 09:05:33 51°18.848 2°51.235 -999 -999 -999 -999
2007-11-20 09:05:38 51°18.865 2°51.223 -999 -999 -999 -999
2007-11-20 09:05:43 51°18.881 2°51.212 -999 -999 -999 -999
2007-11-20 09:05:48 51°18.897 2°51.2 -999 -999 -999 -999
2007-11-20 09:05:53 51°18.914 2°51.188 -999 -999 -999 -999
2007-11-20 09:05:58 51°18.93 2°51.176 -999 -999 -999 -999
2007-11-20 09:06:03 51°18.946 2°51.164 -999 -999 -999 -999
2007-11-20 09:06:08 51°18.962 2°51.151 -999 -999 -999 -999
2007-11-20 09:06:13 51°18.978 2°51.139 -999 -999 -999 -999
2007-11-20 09:06:18 51°18.994 2°51.127 -999 -999 -999 -999
2007-11-20 09:06:23 51°19.01 2°51.115 -999 -999 -999 -999
2007-11-20 09:06:28 51°19.026 2°51.103 -999 -999 -999 -999
2007-11-20 09:06:33 51°19.042 2°51.09 -999 -999 -999 -999
2007-11-20 09:06:38 51°19.058 2°51.078 -999 -999 -999 -999
2007-11-20 09:06:43 51°19.074 2°51.065 -999 -999 -999 -999
2007-11-20 09:06:48 51°19.09 2°51.054 -999 -999 -999 -999
2007-11-20 09:06:53 51°19.106 2°51.041 -999 -999 -999 -999
2007-11-20 09:06:58 51°19.122 2°51.03 -999 -999 -999 -999
2007-11-20 09:07:03 51°19.138 2°51.018 -999 -999 -999 -999
2007-11-20 09:07:08 51°19.154 2°51.006 -999 -999 -999 -999
2007-11-20 09:07:13 51°19.17 2°50.994 -999 -999 -999 -999
2007-11-20 09:07:18 51°19.186 2°50.982 -999 -999 -999 -999
2007-11-20 09:07:23 51°19.202 2°50.971 -999 -999 -999 -999
2007-11-20 09:07:28 51°19.218 2°50.959 -999 -999 -999 -999
2007-11-20 09:07:33 51°19.234 2°50.947 -999 -999 -999 -999
2007-11-20 09:07:38 51°19.25 2°50.935 -999 -999 -999 -999
2007-11-20 09:07:43 51°19.266 2°50.923 -999 -999 -999 -999
2007-11-20 09:07:48 51°19.282 2°50.911 -999 -999 -999 -999
2007-11-20 09:07:53 51°19.298 2°50.899 -999 -999 -999 -999
2007-11-20 09:07:58 51°19.314 2°50.888 -999 -999 -999 -999
2007-11-20 09:08:03 51°19.331 2°50.876 -999 -999 -999 -999
2007-11-20 09:08:08 51°19.347 2°50.864 -999 -999 -999 -999
2007-11-20 09:08:13 51°19.363 2°50.853 -999 -999 -999 -999
2007-11-20 09:08:18 51°19.379 2°50.841 -999 -999 -999 -999
2007-11-20 09:08:23 51°19.395 2°50.829 -999 -999 -999 -999
2007-11-20 09:08:28 51°19.411 2°50.816 -999 -999 -999 -999
2007-11-20 09:08:33 51°19.427 2°50.804 -999 -999 -999 -999
2007-11-20 09:08:38 51°19.443 2°50.792 -999 -999 -999 -999
2007-11-20 09:08:43 51°19.459 2°50.78 -999 -999 -999 -999
2007-11-20 09:08:48 51°19.475 2°50.768 -999 -999 -999 -999
2007-11-20 09:08:53 51°19.491 2°50.756 -999 -999 -999 -999
2007-11-20 09:08:58 51°19.507 2°50.744 -999 -999 -999 -999
2007-11-20 09:09:03 51°19.523 2°50.733 -999 -999 -999 -999
2007-11-20 09:09:08 51°19.539 2°50.721 -999 -999 -999 -999
2007-11-20 09:09:13 51°19.555 2°50.709 -999 -999 -999 -999
2007-11-20 09:09:18 51°19.572 2°50.698 -999 -999 -999 -999
2007-11-20 09:09:23 51°19.587 2°50.686 -999 -999 -999 -999
2007-11-20 09:09:28 51°19.604 2°50.674 -999 -999 -999 -999
2007-11-20 09:09:33 51°19.62 2°50.662 -999 -999 -999 -999
2007-11-20 09:09:38 51°19.636 2°50.651 -999 -999 -999 -999
2007-11-20 09:09:43 51°19.652 2°50.639 -999 -999 -999 -999
2007-11-20 09:09:48 51°19.668 2°50.627 -999 -999 -999 -999
2007-11-20 09:09:53 51°19.684 2°50.616 -999 -999 -999 -999
2007-11-20 09:09:58 51°19.7 2°50.604 -999 -999 -999 -999
2007-11-20 09:10:03 51°19.716 2°50.592 -999 -999 -999 -999
2007-11-20 09:10:08 51°19.732 2°50.581 -999 -999 -999 -999
2007-11-20 09:10:13 51°19.748 2°50.569 -999 -999 -999 -999
2007-11-20 09:10:18 51°19.764 2°50.557 -999 -999 -999 -999
2007-11-20 09:10:23 51°19.78 2°50.546 -999 -999 -999 -999
2007-11-20 09:10:28 51°19.796 2°50.534 -999 -999 -999 -999
2007-11-20 09:10:33 51°19.812 2°50.523 -999 -999 -999 -999
2007-11-20 09:10:38 51°19.828 2°50.511 -999 -999 -999 -999
2007-11-20 09:10:43 51°19.845 2°50.5 -999 -999 -999 -999
2007-11-20 09:10:48 51°19.861 2°50.488 -999 -999 -999 -999
2007-11-20 09:10:53 51°19.877 2°50.477 -999 -999 -999 -999
2007-11-20 09:10:58 51°19.893 2°50.466 -999 -999 -999 -999
2007-11-20 09:11:03 51°19.91 2°50.454 -999 -999 -999 -999
2007-11-20 09:11:08 51°19.926 2°50.443 -999 -999 -999 -999
2007-11-20 09:11:13 51°19.942 2°50.431 -999 -999 -999 -999
2007-11-20 09:11:18 51°19.958 2°50.419 -999 -999 -999 -999
2007-11-20 09:11:23 51°19.974 2°50.408 -999 -999 -999 -999
2007-11-20 09:11:28 51°19.99 2°50.395 -999 -999 -999 -999
2007-11-20 09:11:33 51°20.007 2°50.383 -999 -999 -999 -999
2007-11-20 09:11:38 51°20.023 2°50.372 -999 -999 -999 -999
2007-11-20 09:11:43 51°20.039 2°50.36 -999 -999 -999 -999
2007-11-20 09:11:48 51°20.055 2°50.348 -999 -999 -999 -999
2007-11-20 09:11:53 51°20.072 2°50.337 -999 -999 -999 -999
2007-11-20 09:11:58 51°20.088 2°50.326 -999 -999 -999 -999
2007-11-20 09:12:03 51°20.104 2°50.315 -999 -999 -999 -999
2007-11-20 09:12:08 51°20.121 2°50.304 -999 -999 -999 -999
2007-11-20 09:12:13 51°20.137 2°50.292 -999 -999 -999 -999
2007-11-20 09:12:18 51°20.153 2°50.282 -999 -999 -999 -999
2007-11-20 09:12:23 51°20.17 2°50.27 -999 -999 -999 -999
2007-11-20 09:12:28 51°20.186 2°50.259 -999 -999 -999 -999
2007-11-20 09:12:33 51°20.202 2°50.248 -999 -999 -999 -999
2007-11-20 09:12:38 51°20.219 2°50.237 -999 -999 -999 -999
2007-11-20 09:12:43 51°20.235 2°50.226 -999 -999 -999 -999
2007-11-20 09:12:48 51°20.252 2°50.214 -999 -999 -999 -999
2007-11-20 09:12:53 51°20.268 2°50.204 -999 -999 -999 -999
2007-11-20 09:12:58 51°20.285 2°50.193 -999 -999 -999 -999
2007-11-20 09:13:03 51°20.301 2°50.182 -999 -999 -999 -999
2007-11-20 09:13:08 51°20.318 2°50.171 -999 -999 -999 -999
2007-11-20 09:13:13 51°20.334 2°50.159 -999 -999 -999 -999
2007-11-20 09:13:18 51°20.35 2°50.148 -999 -999 -999 -999
2007-11-20 09:13:23 51°20.367 2°50.136 -999 -999 -999 -999
2007-11-20 09:13:28 51°20.383 2°50.125 -999 -999 -999 -999
2007-11-20 09:13:33 51°20.399 2°50.114 -999 -999 -999 -999
2007-11-20 09:13:38 51°20.416 2°50.102 -999 -999 -999 -999
2007-11-20 09:13:43 51°20.432 2°50.091 -999 -999 -999 -999
2007-11-20 09:13:48 51°20.449 2°50.079 -999 -999 -999 -999
2007-11-20 09:13:53 51°20.465 2°50.068 -999 -999 -999 -999
2007-11-20 09:13:58 51°20.482 2°50.057 -999 -999 -999 -999
2007-11-20 09:14:03 51°20.499 2°50.046 -999 -999 -999 -999
2007-11-20 09:14:08 51°20.515 2°50.035 -999 -999 -999 -999
2007-11-20 09:14:13 51°20.531 2°50.024 -999 -999 -999 -999
2007-11-20 09:14:18 51°20.548 2°50.013 -999 -999 -999 -999
2007-11-20 09:14:23 51°20.564 2°50.001 -999 -999 -999 -999
2007-11-20 09:14:28 51°20.581 2°49.99 -999 -999 -999 -999
2007-11-20 09:14:33 51°20.598 2°49.98 -999 -999 -999 -999
2007-11-20 09:14:38 51°20.614 2°49.968 -999 -999 -999 -999
2007-11-20 09:14:43 51°20.631 2°49.958 -999 -999 -999 -999
2007-11-20 09:14:48 51°20.647 2°49.946 -999 -999 -999 -999
2007-11-20 09:14:53 51°20.663 2°49.935 -999 -999 -999 -999
2007-11-20 09:14:58 51°20.68 2°49.924 -999 -999 -999 -999
2007-11-20 09:15:03 51°20.696 2°49.913 -999 -999 -999 -999
2007-11-20 09:15:08 51°20.713 2°49.902 -999 -999 -999 -999
2007-11-20 09:15:13 51°20.729 2°49.891 -999 -999 -999 -999
2007-11-20 09:15:18 51°20.746 2°49.879 -999 -999 -999 -999
2007-11-20 09:15:23 51°20.762 2°49.868 -999 -999 -999 -999
2007-11-20 09:15:28 51°20.779 2°49.856 -999 -999 -999 -999
2007-11-20 09:15:33 51°20.795 2°49.845 -999 -999 -999 -999
2007-11-20 09:15:38 51°20.811 2°49.833 -999 -999 -999 -999
2007-11-20 09:15:43 51°20.828 2°49.822 -999 -999 -999 -999
2007-11-20 09:15:48 51°20.844 2°49.811 -999 -999 -999 -999
2007-11-20 09:15:53 51°20.861 2°49.8 -999 -999 -999 -999
2007-11-20 09:15:58 51°20.878 2°49.789 -999 -999 -999 -999
2007-11-20 09:16:03 51°20.894 2°49.778 -999 -999 -999 -999
2007-11-20 09:16:08 51°20.911 2°49.767 -999 -999 -999 -999
2007-11-20 09:16:13 51°20.928 2°49.756 -999 -999 -999 -999
2007-11-20 09:16:18 51°20.944 2°49.745 -999 -999 -999 -999
2007-11-20 09:16:23 51°20.961 2°49.734 -999 -999 -999 -999
2007-11-20 09:16:28 51°20.978 2°49.723 -999 -999 -999 -999
2007-11-20 09:16:33 51°20.994 2°49.711 -999 -999 -999 -999
2007-11-20 09:16:38 51°21.011 2°49.7 -999 -999 -999 -999
2007-11-20 09:16:43 51°21.027 2°49.688 -999 -999 -999 -999
2007-11-20 09:16:48 51°21.044 2°49.677 -999 -999 -999 -999
2007-11-20 09:16:53 51°21.06 2°49.665 -999 -999 -999 -999
2007-11-20 09:16:58 51°21.077 2°49.654 -999 -999 -999 -999
2007-11-20 09:17:03 51°21.094 2°49.643 -999 -999 -999 -999
2007-11-20 09:17:08 51°21.111 2°49.632 -999 -999 -999 -999
2007-11-20 09:17:13 51°21.127 2°49.621 -999 -999 -999 -999
2007-11-20 09:17:18 51°21.144 2°49.609 -999 -999 -999 -999
2007-11-20 09:17:23 51°21.161 2°49.599 -999 -999 -999 -999
2007-11-20 09:17:28 51°21.177 2°49.587 -999 -999 -999 -999
2007-11-20 09:17:33 51°21.194 2°49.577 -999 -999 -999 -999
2007-11-20 09:17:38 51°21.211 2°49.565 -999 -999 -999 -999
2007-11-20 09:17:43 51°21.228 2°49.554 -999 -999 -999 -999
2007-11-20 09:17:48 51°21.244 2°49.543 -999 -999 -999 -999
2007-11-20 09:17:53 51°21.261 2°49.532 -999 -999 -999 -999
2007-11-20 09:17:58 51°21.277 2°49.52 -999 -999 -999 -999
2007-11-20 09:18:03 51°21.293 2°49.508 -999 -999 -999 -999
2007-11-20 09:18:08 51°21.31 2°49.496 -999 -999 -999 -999
2007-11-20 09:18:13 51°21.326 2°49.483 -999 -999 -999 -999
2007-11-20 09:18:18 51°21.343 2°49.472 -999 -999 -999 -999
2007-11-20 09:18:23 51°21.359 2°49.459 -999 -999 -999 -999
2007-11-20 09:18:28 51°21.375 2°49.448 -999 -999 -999 -999
2007-11-20 09:18:33 51°21.391 2°49.435 -999 -999 -999 -999
2007-11-20 09:18:38 51°21.408 2°49.424 -999 -999 -999 -999
2007-11-20 09:18:43 51°21.424 2°49.411 -999 -999 -999 -999
2007-11-20 09:18:48 51°21.44 2°49.399 -999 -999 -999 -999
2007-11-20 09:18:53 51°21.456 2°49.387 -999 -999 -999 -999
2007-11-20 09:18:58 51°21.473 2°49.375 -999 -999 -999 -999
2007-11-20 09:19:03 51°21.489 2°49.362 -999 -999 -999 -999
2007-11-20 09:19:08 51°21.505 2°49.351 -999 -999 -999 -999
2007-11-20 09:19:13 51°21.521 2°49.339 -999 -999 -999 -999
2007-11-20 09:19:18 51°21.538 2°49.328 -999 -999 -999 -999
2007-11-20 09:19:23 51°21.554 2°49.316 -999 -999 -999 -999
2007-11-20 09:19:28 51°21.57 2°49.304 -999 -999 -999 -999
2007-11-20 09:19:33 51°21.587 2°49.293 -999 -999 -999 -999
2007-11-20 09:19:38 51°21.603 2°49.282 -999 -999 -999 -999
2007-11-20 09:19:43 51°21.62 2°49.271 -999 -999 -999 -999
2007-11-20 09:19:48 51°21.637 2°49.26 -999 -999 -999 -999
2007-11-20 09:19:53 51°21.654 2°49.249 -999 -999 -999 -999
2007-11-20 09:19:58 51°21.67 2°49.238 -999 -999 -999 -999
2007-11-20 09:20:03 51°21.687 2°49.226 -999 -999 -999 -999
2007-11-20 09:20:08 51°21.704 2°49.215 -999 -999 -999 -999
2007-11-20 09:20:13 51°21.72 2°49.203 -999 -999 -999 -999
2007-11-20 09:20:18 51°21.737 2°49.192 -999 -999 -999 -999
2007-11-20 09:20:23 51°21.754 2°49.181 -999 -999 -999 -999
2007-11-20 09:20:28 51°21.77 2°49.17 -999 -999 -999 -999
2007-11-20 09:20:33 51°21.787 2°49.158 -999 -999 -999 -999
2007-11-20 09:20:38 51°21.804 2°49.147 -999 -999 -999 -999
2007-11-20 09:20:43 51°21.821 2°49.136 -999 -999 -999 -999
2007-11-20 09:20:48 51°21.837 2°49.124 -999 -999 -999 -999
2007-11-20 09:20:53 51°21.854 2°49.114 -999 -999 -999 -999
2007-11-20 09:20:58 51°21.871 2°49.102 -999 -999 -999 -999
2007-11-20 09:21:03 51°21.887 2°49.091 -999 -999 -999 -999
2007-11-20 09:21:08 51°21.904 2°49.08 -999 -999 -999 -999
2007-11-20 09:21:13 51°21.921 2°49.069 -999 -999 -999 -999
2007-11-20 09:21:18 51°21.937 2°49.059 -999 -999 -999 -999
2007-11-20 09:21:23 51°21.953 2°49.047 -999 -999 -999 -999
2007-11-20 09:21:28 51°21.97 2°49.036 -999 -999 -999 -999
2007-11-20 09:21:33 51°21.986 2°49.025 -999 -999 -999 -999
2007-11-20 09:21:38 51°22.003 2°49.014 -999 -999 -999 -999
2007-11-20 09:21:43 51°22.019 2°49.003 -999 -999 -999 -999
2007-11-20 09:21:48 51°22.036 2°48.993 -999 -999 -999 -999
2007-11-20 09:21:53 51°22.052 2°48.982 -999 -999 -999 -999
2007-11-20 09:21:58 51°22.069 2°48.971 -999 -999 -999 -999
2007-11-20 09:22:03 51°22.085 2°48.96 -999 -999 -999 -999
2007-11-20 09:22:08 51°22.102 2°48.95 -999 -999 -999 -999
2007-11-20 09:22:13 51°22.118 2°48.939 -999 -999 -999 -999
2007-11-20 09:22:18 51°22.135 2°48.928 -999 -999 -999 -999
2007-11-20 09:22:23 51°22.151 2°48.917 -999 -999 -999 -999
2007-11-20 09:22:28 51°22.167 2°48.906 -999 -999 -999 -999
2007-11-20 09:22:33 51°22.184 2°48.895 -999 -999 -999 -999
2007-11-20 09:22:38 51°22.2 2°48.884 -999 -999 -999 -999
2007-11-20 09:22:43 51°22.216 2°48.872 -999 -999 -999 -999
2007-11-20 09:22:48 51°22.231 2°48.858 -999 -999 -999 -999
2007-11-20 09:22:53 51°22.246 2°48.844 -999 -999 -999 -999
2007-11-20 09:22:58 51°22.261 2°48.83 -999 -999 -999 -999
2007-11-20 09:23:03 51°22.275 2°48.814 -999 -999 -999 -999
2007-11-20 09:23:08 51°22.289 2°48.797 -999 -999 -999 -999
2007-11-20 09:23:13 51°22.302 2°48.779 -999 -999 -999 -999
2007-11-20 09:23:18 51°22.314 2°48.761 -999 -999 -999 -999
2007-11-20 09:23:23 51°22.326 2°48.742 -999 -999 -999 -999
2007-11-20 09:23:28 51°22.338 2°48.723 -999 -999 -999 -999
2007-11-20 09:23:33 51°22.349 2°48.703 -999 -999 -999 -999
2007-11-20 09:23:38 51°22.36 2°48.683 -999 -999 -999 -999
2007-11-20 09:23:43 51°22.369 2°48.661 -999 -999 -999 -999
2007-11-20 09:23:48 51°22.378 2°48.639 -999 -999 -999 -999
2007-11-20 09:23:53 51°22.386 2°48.616 -999 -999 -999 -999
2007-11-20 09:23:58 51°22.394 2°48.593 -999 -999 -999 -999
2007-11-20 09:24:03 51°22.401 2°48.57 -999 -999 -999 -999
2007-11-20 09:24:08 51°22.407 2°48.546 -999 -999 -999 -999
2007-11-20 09:24:13 51°22.411 2°48.522 -999 -999 -999 -999
2007-11-20 09:24:18 51°22.415 2°48.498 -999 -999 -999 -999
2007-11-20 09:24:23 51°22.417 2°48.473 -999 -999 -999 -999
2007-11-20 09:24:28 51°22.42 2°48.448 -999 -999 -999 -999
2007-11-20 09:24:33 51°22.421 2°48.424 -999 -999 -999 -999
2007-11-20 09:24:38 51°22.423 2°48.399 -999 -999 -999 -999
2007-11-20 09:24:43 51°22.423 2°48.374 -999 -999 -999 -999
2007-11-20 09:24:48 51°22.425 2°48.349 -999 -999 -999 -999
2007-11-20 09:24:53 51°22.425 2°48.324 -999 -999 -999 -999
2007-11-20 09:24:58 51°22.426 2°48.299 -999 -999 -999 -999
2007-11-20 09:25:03 51°22.427 2°48.274 -999 -999 -999 -999
2007-11-20 09:25:08 51°22.428 2°48.249 -999 -999 -999 -999
2007-11-20 09:25:13 51°22.43 2°48.224 -999 -999 -999 -999
2007-11-20 09:25:18 51°22.432 2°48.199 -999 -999 -999 -999
2007-11-20 09:25:23 51°22.435 2°48.174 -999 -999 -999 -999
2007-11-20 09:25:28 51°22.438 2°48.149 -999 -999 -999 -999
2007-11-20 09:25:33 51°22.441 2°48.124 -999 -999 -999 -999
2007-11-20 09:25:38 51°22.444 2°48.099 -999 -999 -999 -999
2007-11-20 09:25:43 51°22.446 2°48.074 -999 -999 -999 -999
2007-11-20 09:25:48 51°22.45 2°48.049 -999 -999 -999 -999
2007-11-20 09:25:53 51°22.453 2°48.023 -999 -999 -999 -999
2007-11-20 09:25:58 51°22.456 2°47.998 -999 -999 -999 -999
2007-11-20 09:26:03 51°22.459 2°47.973 -999 -999 -999 -999
2007-11-20 09:26:08 51°22.462 2°47.949 -999 -999 -999 -999
2007-11-20 09:26:13 51°22.464 2°47.924 -999 -999 -999 -999
2007-11-20 09:26:18 51°22.468 2°47.898 -999 -999 -999 -999
2007-11-20 09:26:23 51°22.471 2°47.873 -999 -999 -999 -999
2007-11-20 09:26:28 51°22.474 2°47.849 -999 -999 -999 -999
2007-11-20 09:26:33 51°22.476 2°47.824 -999 -999 -999 -999
2007-11-20 09:26:38 51°22.479 2°47.799 -999 -999 -999 -999
2007-11-20 09:26:43 51°22.481 2°47.774 -999 -999 -999 -999
2007-11-20 09:26:48 51°22.484 2°47.748 -999 -999 -999 -999
2007-11-20 09:26:53 51°22.487 2°47.724 -999 -999 -999 -999
2007-11-20 09:26:58 51°22.489 2°47.699 -999 -999 -999 -999
2007-11-20 09:27:03 51°22.493 2°47.673 -999 -999 -999 -999
2007-11-20 09:27:08 51°22.496 2°47.648 -999 -999 -999 -999
2007-11-20 09:27:12 51°22.499 2°47.628 -999 -999 -999 -999
2007-11-20 09:27:18 51°22.503 2°47.598 -999 -999 -999 -999
2007-11-20 09:27:23 51°22.506 2°47.573 -999 -999 -999 -999
2007-11-20 09:27:28 51°22.509 2°47.548 -999 -999 -999 -999
2007-11-20 09:27:33 51°22.513 2°47.522 -999 -999 -999 -999
2007-11-20 09:27:38 51°22.517 2°47.497 -999 -999 -999 -999
2007-11-20 09:27:43 51°22.521 2°47.472 -999 -999 -999 -999
2007-11-20 09:27:49 51°22.525 2°47.443 -999 -999 -999 -999
2007-11-20 09:27:53 51°22.528 2°47.423 -999 -999 -999 -999
2007-11-20 09:27:57 51°22.531 2°47.403 -999 -999 -999 -999
2007-11-20 09:28:03 51°22.535 2°47.373 -999 -999 -999 -999
2007-11-20 09:28:09 51°22.539 2°47.342 -999 -999 -999 -999
2007-11-20 09:28:13 51°22.541 2°47.322 -999 -999 -999 -999
2007-11-20 09:28:18 51°22.545 2°47.297 -999 -999 -999 -999
2007-11-20 09:28:23 51°22.548 2°47.272 -999 -999 -999 -999
2007-11-20 09:28:29 51°22.552 2°47.242 -999 -999 -999 -999
2007-11-20 09:28:33 51°22.554 2°47.222 -999 -999 -999 -999
2007-11-20 09:28:39 51°22.558 2°47.192 -999 -999 -999 -999
2007-11-20 09:28:43 51°22.561 2°47.172 -999 -999 -999 -999
2007-11-20 09:28:47 51°22.564 2°47.152 -999 -999 -999 -999
2007-11-20 09:28:53 51°22.569 2°47.122 -999 -999 -999 -999
2007-11-20 09:28:59 51°22.574 2°47.092 -999 -999 -999 -999
2007-11-20 09:29:03 51°22.577 2°47.072 -999 -999 -999 -999
2007-11-20 09:29:09 51°22.581 2°47.042 -999 -999 -999 -999
2007-11-20 09:29:13 51°22.583 2°47.022 -999 -999 -999 -999
2007-11-20 09:29:19 51°22.587 2°46.992 -999 -999 -999 -999
2007-11-20 09:29:23 51°22.589 2°46.972 -999 -999 -999 -999
2007-11-20 09:29:29 51°22.592 2°46.941 -999 -999 -999 -999
2007-11-20 09:29:33 51°22.594 2°46.921 -999 -999 -999 -999
2007-11-20 09:29:39 51°22.596 2°46.891 -999 -999 -999 -999
2007-11-20 09:29:43 51°22.598 2°46.871 -999 -999 -999 -999
2007-11-20 09:29:49 51°22.601 2°46.84 -999 -999 -999 -999
2007-11-20 09:29:53 51°22.603 2°46.82 -999 -999 -999 -999
2007-11-20 09:29:58 51°22.606 2°46.795 -999 -999 -999 -999
2007-11-20 09:30:03 51°22.609 2°46.77 -999 -999 -999 -999
2007-11-20 09:30:09 51°22.612 2°46.739 -999 -999 -999 -999
2007-11-20 09:30:13 51°22.614 2°46.719 -999 -999 -999 -999
2007-11-20 09:30:18 51°22.617 2°46.693 -999 -999 -999 -999
2007-11-20 09:30:23 51°22.621 2°46.668 -999 -999 -999 -999
2007-11-20 09:30:29 51°22.624 2°46.638 -999 -999 -999 -999
2007-11-20 09:30:33 51°22.627 2°46.617 -999 -999 -999 -999
2007-11-20 09:30:39 51°22.63 2°46.587 -999 -999 -999 -999
2007-11-20 09:30:43 51°22.633 2°46.567 -999 -999 -999 -999
2007-11-20 09:30:49 51°22.636 2°46.537 -999 -999 -999 -999
2007-11-20 09:30:53 51°22.638 2°46.517 -999 -999 -999 -999
2007-11-20 09:30:59 51°22.641 2°46.486 -999 -999 -999 -999
2007-11-20 09:31:03 51°22.644 2°46.466 -999 -999 -999 -999
2007-11-20 09:31:07 51°22.646 2°46.446 -999 -999 -999 -999
2007-11-20 09:31:13 51°22.649 2°46.415 -999 -999 -999 -999
2007-11-20 09:31:18 51°22.651 2°46.389 -999 -999 -999 -999
2007-11-20 09:31:23 51°22.654 2°46.364 -999 -999 -999 -999
2007-11-20 09:31:29 51°22.657 2°46.333 -999 -999 -999 -999
2007-11-20 09:31:33 51°22.66 2°46.313 -999 -999 -999 -999
2007-11-20 09:31:39 51°22.664 2°46.282 -999 -999 -999 -999
2007-11-20 09:31:43 51°22.666 2°46.262 -999 -999 -999 -999
2007-11-20 09:31:49 51°22.67 2°46.232 -999 -999 -999 -999
2007-11-20 09:31:53 51°22.672 2°46.211 -999 -999 -999 -999
2007-11-20 09:31:59 51°22.676 2°46.181 -999 -999 -999 -999
2007-11-20 09:32:03 51°22.678 2°46.16 -999 -999 -999 -999
2007-11-20 09:32:09 51°22.682 2°46.13 -999 -999 -999 -999
2007-11-20 09:32:13 51°22.684 2°46.109 -999 -999 -999 -999
2007-11-20 09:32:19 51°22.686 2°46.079 -999 -999 -999 -999
2007-11-20 09:32:23 51°22.688 2°46.058 -999 -999 -999 -999
2007-11-20 09:32:29 51°22.69 2°46.028 -999 -999 -999 -999
2007-11-20 09:32:33 51°22.691 2°46.007 -999 -999 -999 -999
2007-11-20 09:32:38 51°22.692 2°45.982 -999 -999 -999 -999
2007-11-20 09:32:43 51°22.693 2°45.956 -999 -999 -999 -999
2007-11-20 09:32:49 51°22.695 2°45.926 -999 -999 -999 -999
2007-11-20 09:32:53 51°22.696 2°45.905 -999 -999 -999 -999
2007-11-20 09:32:59 51°22.699 2°45.874 -999 -999 -999 -999
2007-11-20 09:33:04 51°22.701 2°45.848 -999 -999 -999 -999
2007-11-20 09:33:09 51°22.704 2°45.822 -999 -999 -999 -999
2007-11-20 09:33:13 51°22.705 2°45.802 -999 -999 -999 -999
2007-11-20 09:33:18 51°22.708 2°45.776 -999 -999 -999 -999
2007-11-20 09:33:24 51°22.711 2°45.746 -999 -999 -999 -999
2007-11-20 09:33:29 51°22.712 2°45.72 -999 -999 -999 -999
2007-11-20 09:33:33 51°22.714 2°45.699 -999 -999 -999 -999
2007-11-20 09:33:39 51°22.716 2°45.668 -999 -999 -999 -999
2007-11-20 09:33:43 51°22.718 2°45.647 -999 -999 -999 -999
2007-11-20 09:33:49 51°22.72 2°45.616 -999 -999 -999 -999
2007-11-20 09:33:53 51°22.722 2°45.596 -999 -999 -999 -999
2007-11-20 09:33:59 51°22.724 2°45.564 -999 -999 -999 -999
2007-11-20 09:34:03 51°22.726 2°45.544 -999 -999 -999 -999
2007-11-20 09:34:09 51°22.728 2°45.513 -999 -999 -999 -999
2007-11-20 09:34:13 51°22.73 2°45.493 -999 -999 -999 -999
2007-11-20 09:34:19 51°22.733 2°45.462 -999 -999 -999 -999
2007-11-20 09:34:24 51°22.735 2°45.436 -999 -999 -999 -999
2007-11-20 09:34:29 51°22.737 2°45.411 -999 -999 -999 -999
2007-11-20 09:34:33 51°22.737 2°45.39 -999 -999 -999 -999
2007-11-20 09:34:39 51°22.74 2°45.36 -999 -999 -999 -999
2007-11-20 09:34:44 51°22.741 2°45.334 -999 -999 -999 -999
2007-11-20 09:34:49 51°22.743 2°45.309 -999 -999 -999 -999
2007-11-20 09:34:53 51°22.744 2°45.288 -999 -999 -999 -999
2007-11-20 09:34:59 51°22.746 2°45.258 -999 -999 -999 -999
2007-11-20 09:35:03 51°22.747 2°45.237 -999 -999 -999 -999
2007-11-20 09:35:09 51°22.749 2°45.206 -999 -999 -999 -999
2007-11-20 09:35:13 51°22.751 2°45.186 -999 -999 -999 -999
2007-11-20 09:35:18 51°22.753 2°45.16 -999 -999 -999 -999
2007-11-20 09:35:24 51°22.755 2°45.129 -999 -999 -999 -999
2007-11-20 09:35:29 51°22.758 2°45.103 -999 -999 -999 -999
2007-11-20 09:35:33 51°22.759 2°45.083 -999 -999 -999 -999
2007-11-20 09:35:38 51°22.762 2°45.057 -999 -999 -999 -999
2007-11-20 09:35:44 51°22.764 2°45.026 -999 -999 -999 -999
2007-11-20 09:35:49 51°22.766 2°45.001 -999 -999 -999 -999
2007-11-20 09:35:53 51°22.767 2°44.98 -999 -999 -999 -999
2007-11-20 09:35:59 51°22.769 2°44.949 -999 -999 -999 -999
2007-11-20 09:36:04 51°22.77 2°44.924 -999 -999 -999 -999
2007-11-20 09:36:07 51°22.771 2°44.909 -999 -999 -999 -999
2007-11-20 09:36:14 51°22.773 2°44.873 -999 -999 -999 -999
2007-11-20 09:36:19 51°22.775 2°44.847 -999 -999 -999 -999
2007-11-20 09:36:24 51°22.776 2°44.822 -999 -999 -999 -999
2007-11-20 09:36:29 51°22.779 2°44.796 -999 -999 -999 -999
2007-11-20 09:36:33 51°22.779 2°44.776 -999 -999 -999 -999
2007-11-20 09:36:39 51°22.782 2°44.745 -999 -999 -999 -999
2007-11-20 09:36:44 51°22.783 2°44.72 -999 -999 -999 -999
2007-11-20 09:36:49 51°22.785 2°44.695 -999 -999 -999 -999
2007-11-20 09:36:53 51°22.785 2°44.675 -999 -999 -999 -999
2007-11-20 09:36:59 51°22.787 2°44.645 -999 -999 -999 -999
2007-11-20 09:37:04 51°22.788 2°44.62 -999 -999 -999 -999
2007-11-20 09:37:09 51°22.789 2°44.596 -999 -999 -999 -999
2007-11-20 09:37:13 51°22.79 2°44.576 -999 -999 -999 -999
2007-11-20 09:37:18 51°22.791 2°44.551 -999 -999 -999 -999
2007-11-20 09:37:24 51°22.792 2°44.522 -999 -999 -999 -999
2007-11-20 09:37:29 51°22.794 2°44.497 -999 -999 -999 -999
2007-11-20 09:37:33 51°22.795 2°44.477 -999 -999 -999 -999
2007-11-20 09:37:38 51°22.796 2°44.453 -999 -999 -999 -999
2007-11-20 09:37:44 51°22.797 2°44.423 -999 -999 -999 -999
2007-11-20 09:37:49 51°22.798 2°44.399 -999 -999 -999 -999
2007-11-20 09:37:53 51°22.799 2°44.379 -999 -999 -999 -999
2007-11-20 09:37:59 51°22.8 2°44.349 -999 -999 -999 -999
2007-11-20 09:38:04 51°22.802 2°44.325 -999 -999 -999 -999
2007-11-20 09:38:09 51°22.804 2°44.3 -999 -999 -999 -999
2007-11-20 09:38:14 51°22.805 2°44.275 -999 -999 -999 -999
2007-11-20 09:38:19 51°22.806 2°44.251 -999 -999 -999 -999
2007-11-20 09:38:24 51°22.808 2°44.226 -999 -999 -999 -999
2007-11-20 09:38:29 51°22.809 2°44.202 -999 -999 -999 -999
2007-11-20 09:38:33 51°22.809 2°44.182 -999 -999 -999 -999
2007-11-20 09:38:39 51°22.809 2°44.153 -999 -999 -999 -999
2007-11-20 09:38:44 51°22.809 2°44.128 -999 -999 -999 -999
2007-11-20 09:38:49 51°22.809 2°44.104 -999 -999 -999 -999
2007-11-20 09:38:53 51°22.809 2°44.085 -999 -999 -999 -999
2007-11-20 09:38:59 51°22.808 2°44.056 -999 -999 -999 -999
2007-11-20 09:39:04 51°22.807 2°44.031 -999 -999 -999 -999
2007-11-20 09:39:09 51°22.806 2°44.007 -999 -999 -999 -999
2007-11-20 09:39:13 51°22.806 2°43.988 -999 -999 -999 -999
2007-11-20 09:39:19 51°22.806 2°43.958 -999 -999 -999 -999
2007-11-20 09:39:24 51°22.806 2°43.934 -999 -999 -999 -999
2007-11-20 09:39:29 51°22.806 2°43.909 -999 -999 -999 -999
2007-11-20 09:39:33 51°22.807 2°43.89 -999 -999 -999 -999
2007-11-20 09:39:38 51°22.808 2°43.865 -999 -999 -999 -999
2007-11-20 09:39:44 51°22.809 2°43.836 -999 -999 -999 -999
2007-11-20 09:39:49 51°22.81 2°43.811 -999 -999 -999 -999
2007-11-20 09:39:53 51°22.811 2°43.791 -999 -999 -999 -999
2007-11-20 09:39:59 51°22.812 2°43.761 -999 -999 -999 -999
2007-11-20 09:40:03 51°22.813 2°43.741 -999 -999 -999 -999
2007-11-20 09:40:09 51°22.813 2°43.712 -999 -999 -999 -999
2007-11-20 09:40:13 51°22.814 2°43.692 -999 -999 -999 -999
2007-11-20 09:40:19 51°22.815 2°43.662 -999 -999 -999 -999
2007-11-20 09:40:23 51°22.816 2°43.642 -999 -999 -999 -999
2007-11-20 09:40:27 51°22.816 2°43.622 -999 -999 -999 -999
2007-11-20 09:40:33 51°22.818 2°43.592 -999 -999 -999 -999
2007-11-20 09:40:39 51°22.819 2°43.562 -999 -999 -999 -999
2007-11-20 09:40:43 51°22.819 2°43.543 -999 -999 -999 -999
2007-11-20 09:40:49 51°22.82 2°43.513 -999 -999 -999 -999
2007-11-20 09:40:53 51°22.821 2°43.493 -999 -999 -999 -999
2007-11-20 09:40:59 51°22.821 2°43.464 -999 -999 -999 -999
2007-11-20 09:41:04 51°22.822 2°43.439 -999 -999 -999 -999
2007-11-20 09:41:09 51°22.823 2°43.415 -999 -999 -999 -999
2007-11-20 09:41:13 51°22.823 2°43.395 -999 -999 -999 -999
2007-11-20 09:41:18 51°22.824 2°43.371 -999 -999 -999 -999
2007-11-20 09:41:24 51°22.824 2°43.341 -999 -999 -999 -999
2007-11-20 09:41:29 51°22.826 2°43.317 -999 -999 -999 -999
2007-11-20 09:41:33 51°22.826 2°43.297 -999 -999 -999 -999
2007-11-20 09:41:38 51°22.827 2°43.272 -999 -999 -999 -999
2007-11-20 09:41:43 51°22.827 2°43.247 -999 -999 -999 -999
2007-11-20 09:41:49 51°22.828 2°43.218 -999 -999 -999 -999
2007-11-20 09:41:53 51°22.828 2°43.198 -999 -999 -999 -999
2007-11-20 09:41:58 51°22.829 2°43.173 -999 -999 -999 -999
2007-11-20 09:42:04 51°22.829 2°43.144 -999 -999 -999 -999
2007-11-20 09:42:09 51°22.829 2°43.119 -999 -999 -999 -999
2007-11-20 09:42:13 51°22.829 2°43.099 -999 -999 -999 -999
2007-11-20 09:42:19 51°22.83 2°43.07 -999 -999 -999 -999
2007-11-20 09:42:24 51°22.831 2°43.045 -999 -999 -999 -999
2007-11-20 09:42:28 51°22.831 2°43.026 -999 -999 -999 -999
2007-11-20 09:42:33 51°22.832 2°43.001 -999 -999 -999 -999
2007-11-20 09:42:39 51°22.833 2°42.971 -999 -999 -999 -999
2007-11-20 09:42:44 51°22.834 2°42.946 -999 -999 -999 -999
2007-11-20 09:42:49 51°22.834 2°42.921 -999 -999 -999 -999
2007-11-20 09:42:53 51°22.835 2°42.902 -999 -999 -999 -999
2007-11-20 09:42:59 51°22.836 2°42.872 -999 -999 -999 -999
2007-11-20 09:43:04 51°22.837 2°42.847 -999 -999 -999 -999
2007-11-20 09:43:09 51°22.838 2°42.822 -999 -999 -999 -999
2007-11-20 09:43:14 51°22.839 2°42.797 -999 -999 -999 -999
2007-11-20 09:43:19 51°22.839 2°42.773 -999 -999 -999 -999
2007-11-20 09:43:24 51°22.84 2°42.748 -999 -999 -999 -999
2007-11-20 09:43:29 51°22.841 2°42.723 -999 -999 -999 -999
2007-11-20 09:43:33 51°22.842 2°42.703 -999 -999 -999 -999
2007-11-20 09:43:38 51°22.843 2°42.678 -999 -999 -999 -999
2007-11-20 09:43:44 51°22.844 2°42.648 -999 -999 -999 -999
2007-11-20 09:43:49 51°22.845 2°42.624 -999 -999 -999 -999
2007-11-20 09:43:53 51°22.845 2°42.604 -999 -999 -999 -999
2007-11-20 09:43:58 51°22.847 2°42.579 -999 -999 -999 -999
2007-11-20 09:44:04 51°22.847 2°42.549 -999 -999 -999 -999
2007-11-20 09:44:09 51°22.848 2°42.525 -999 -999 -999 -999
2007-11-20 09:44:13 51°22.848 2°42.505 -999 -999 -999 -999
2007-11-20 09:44:19 51°22.849 2°42.475 -999 -999 -999 -999
2007-11-20 09:44:24 51°22.85 2°42.451 -999 -999 -999 -999
2007-11-20 09:44:29 51°22.851 2°42.426 -999 -999 -999 -999
2007-11-20 09:44:33 51°22.851 2°42.406 -999 -999 -999 -999
2007-11-20 09:44:39 51°22.853 2°42.376 -999 -999 -999 -999
2007-11-20 09:44:43 51°22.854 2°42.356 -999 -999 -999 -999
2007-11-20 09:44:49 51°22.855 2°42.326 -999 -999 -999 -999
2007-11-20 09:44:53 51°22.856 2°42.306 -999 -999 -999 -999
2007-11-20 09:44:59 51°22.857 2°42.276 -999 -999 -999 -999
2007-11-20 09:45:04 51°22.857 2°42.251 -999 -999 -999 -999
2007-11-20 09:45:09 51°22.858 2°42.226 -999 -999 -999 -999
2007-11-20 09:45:13 51°22.859 2°42.206 -999 -999 -999 -999
2007-11-20 09:45:19 51°22.859 2°42.177 -999 -999 -999 -999
2007-11-20 09:45:24 51°22.861 2°42.152 -999 -999 -999 -999
2007-11-20 09:45:29 51°22.862 2°42.126 -999 -999 -999 -999
2007-11-20 09:45:34 51°22.863 2°42.101 -999 -999 -999 -999
2007-11-20 09:45:39 51°22.864 2°42.076 -999 -999 -999 -999
2007-11-20 09:45:44 51°22.866 2°42.051 -999 -999 -999 -999
2007-11-20 09:45:49 51°22.867 2°42.026 -999 -999 -999 -999
2007-11-20 09:45:53 51°22.868 2°42.005 -999 -999 -999 -999
2007-11-20 09:45:58 51°22.869 2°41.98 -999 -999 -999 -999
2007-11-20 09:46:04 51°22.871 2°41.949 -999 -999 -999 -999
2007-11-20 09:46:09 51°22.872 2°41.924 -999 -999 -999 -999
2007-11-20 09:46:13 51°22.873 2°41.904 -999 -999 -999 -999
2007-11-20 09:46:18 51°22.874 2°41.878 -999 -999 -999 -999
2007-11-20 09:46:24 51°22.875 2°41.848 -999 -999 -999 -999
2007-11-20 09:46:29 51°22.876 2°41.823 -999 -999 -999 -999
2007-11-20 09:46:33 51°22.876 2°41.803 -999 -999 -999 -999
2007-11-20 09:46:39 51°22.877 2°41.773 -999 -999 -999 -999
2007-11-20 09:46:44 51°22.877 2°41.749 -999 -999 -999 -999
2007-11-20 09:46:49 51°22.878 2°41.724 -999 -999 -999 -999
2007-11-20 09:46:53 51°22.878 2°41.703 -999 -999 -999 -999
2007-11-20 09:46:59 51°22.879 2°41.673 -999 -999 -999 -999
2007-11-20 09:47:04 51°22.879 2°41.648 -999 -999 -999 -999
2007-11-20 09:47:09 51°22.879 2°41.623 -999 -999 -999 -999
2007-11-20 09:47:13 51°22.88 2°41.603 -999 -999 -999 -999
2007-11-20 09:47:19 51°22.88 2°41.573 -999 -999 -999 -999
2007-11-20 09:47:23 51°22.88 2°41.553 -999 -999 -999 -999
2007-11-20 09:47:29 51°22.881 2°41.522 -999 -999 -999 -999
2007-11-20 09:47:34 51°22.881 2°41.497 -999 -999 -999 -999
2007-11-20 09:47:39 51°22.881 2°41.472 -999 -999 -999 -999
2007-11-20 09:47:44 51°22.881 2°41.447 -999 -999 -999 -999
2007-11-20 09:47:49 51°22.881 2°41.421 -999 -999 -999 -999
2007-11-20 09:47:53 51°22.882 2°41.4 -999 -999 -999 -999
2007-11-20 09:47:59 51°22.882 2°41.37 -999 -999 -999 -999
2007-11-20 09:48:04 51°22.884 2°41.344 -999 -999 -999 -999
2007-11-20 09:48:09 51°22.884 2°41.319 -999 -999 -999 -999
2007-11-20 09:48:13 51°22.885 2°41.298 -999 -999 -999 -999
2007-11-20 09:48:18 51°22.886 2°41.273 -999 -999 -999 -999
2007-11-20 09:48:24 51°22.887 2°41.242 -999 -999 -999 -999
2007-11-20 09:48:29 51°22.887 2°41.217 -999 -999 -999 -999
2007-11-20 09:48:33 51°22.887 2°41.196 -999 -999 -999 -999
2007-11-20 09:48:39 51°22.887 2°41.166 -999 -999 -999 -999
2007-11-20 09:48:44 51°22.888 2°41.141 -999 -999 -999 -999
2007-11-20 09:48:49 51°22.888 2°41.115 -999 -999 -999 -999
2007-11-20 09:48:53 51°22.887 2°41.095 -999 -999 -999 -999
2007-11-20 09:48:59 51°22.888 2°41.065 -999 -999 -999 -999
2007-11-20 09:49:04 51°22.888 2°41.04 -999 -999 -999 -999
2007-11-20 09:49:09 51°22.888 2°41.015 -999 -999 -999 -999
2007-11-20 09:49:13 51°22.888 2°40.994 -999 -999 -999 -999
2007-11-20 09:49:17 51°22.889 2°40.974 -999 -999 -999 -999
2007-11-20 09:49:24 51°22.889 2°40.939 -999 -999 -999 -999
2007-11-20 09:49:29 51°22.889 2°40.914 -999 -999 -999 -999
2007-11-20 09:49:33 51°22.889 2°40.893 -999 -999 -999 -999
2007-11-20 09:49:39 51°22.89 2°40.863 -999 -999 -999 -999
2007-11-20 09:49:44 51°22.891 2°40.837 -999 -999 -999 -999
2007-11-20 09:49:49 51°22.891 2°40.812 -999 -999 -999 -999
2007-11-20 09:49:54 51°22.891 2°40.786 -999 -999 -999 -999
2007-11-20 09:49:59 51°22.891 2°40.761 -999 -999 -999 -999
2007-11-20 09:50:04 51°22.891 2°40.735 -999 -999 -999 -999
2007-11-20 09:50:09 51°22.892 2°40.709 -999 -999 -999 -999
2007-11-20 09:50:13 51°22.892 2°40.689 -999 -999 -999 -999
2007-11-20 09:50:19 51°22.893 2°40.659 -999 -999 -999 -999
2007-11-20 09:50:24 51°22.893 2°40.633 -999 -999 -999 -999
2007-11-20 09:50:28 51°22.894 2°40.613 -999 -999 -999 -999
2007-11-20 09:50:32 51°22.894 2°40.593 -999 -999 -999 -999
2007-11-20 09:50:37 51°22.895 2°40.568 -999 -999 -999 -999
2007-11-20 09:50:44 51°22.895 2°40.532 -999 -999 -999 -999
2007-11-20 09:50:49 51°22.896 2°40.507 -999 -999 -999 -999
2007-11-20 09:50:53 51°22.896 2°40.487 -999 -999 -999 -999
2007-11-20 09:50:59 51°22.896 2°40.457 -999 -999 -999 -999
2007-11-20 09:51:04 51°22.896 2°40.432 -999 -999 -999 -999
2007-11-20 09:51:09 51°22.897 2°40.407 -999 -999 -999 -999
2007-11-20 09:51:13 51°22.897 2°40.387 -999 -999 -999 -999
2007-11-20 09:51:18 51°22.897 2°40.362 -999 -999 -999 -999
2007-11-20 09:51:23 51°22.897 2°40.337 -999 -999 -999 -999
2007-11-20 09:51:29 51°22.897 2°40.307 -999 -999 -999 -999
2007-11-20 09:51:33 51°22.897 2°40.286 -999 -999 -999 -999
2007-11-20 09:51:39 51°22.897 2°40.256 -999 -999 -999 -999
2007-11-20 09:51:43 51°22.897 2°40.235 -999 -999 -999 -999
2007-11-20 09:51:49 51°22.898 2°40.205 -999 -999 -999 -999
2007-11-20 09:51:54 51°22.898 2°40.18 -999 -999 -999 -999
2007-11-20 09:51:59 51°22.899 2°40.155 -999 -999 -999 -999
2007-11-20 09:52:04 51°22.899 2°40.129 -999 -999 -999 -999
2007-11-20 09:52:09 51°22.899 2°40.104 -999 -999 -999 -999
2007-11-20 09:52:14 51°22.899 2°40.079 -999 -999 -999 -999
2007-11-20 09:52:19 51°22.899 2°40.053 -999 -999 -999 -999
2007-11-20 09:52:24 51°22.899 2°40.028 -999 -999 -999 -999
2007-11-20 09:52:29 51°22.899 2°40.002 -999 -999 -999 -999
2007-11-20 09:52:33 51°22.9 2°39.982 -999 -999 -999 -999
2007-11-20 09:52:39 51°22.9 2°39.951 -999 -999 -999 -999
2007-11-20 09:52:44 51°22.901 2°39.926 -999 -999 -999 -999
2007-11-20 09:52:49 51°22.901 2°39.9 -999 -999 -999 -999
2007-11-20 09:52:53 51°22.901 2°39.88 -999 -999 -999 -999
2007-11-20 09:52:59 51°22.901 2°39.85 -999 -999 -999 -999
2007-11-20 09:53:04 51°22.901 2°39.825 -999 -999 -999 -999
2007-11-20 09:53:09 51°22.902 2°39.799 -999 -999 -999 -999
2007-11-20 09:53:13 51°22.901 2°39.779 -999 -999 -999 -999
2007-11-20 09:53:18 51°22.901 2°39.754 -999 -999 -999 -999